Location: Austin
(30.3000°N, 97.7500°W)
Time: 23:09:51
(UTC-05:00)

COBE Rocket - Pass Details

Date: 08 April 2026
Orbit: 675 x 772 km, 97.1° (Epoch: 20 April)

Event Time Altitude Azimuth Distance (km) Brightness Sun altitude
Rises 20:29:41 0° 13° (NNE) 3,151 7.2 -8.3°
Reaches altitude 10° 20:31:57 10° 15° (NNE) 2,241 6.4 -8.8°
Maximum altitude 20:36:53 74° 100° (E) 780 3.9 -9.8°
Drops below altitude 10° 20:41:55 10° 186° (S) 2,282 6.4 -10.9°
Sets 20:44:15 0° 188° (S) 3,214 7.1 -11.3°
